{"data":{"norad_id":55166,"epoch":"2026-09-20T00:06:00.675072Z","epoch_age_seconds":64705,"freshness":"FRESH","line1":"1 55166U 23004AC  26263.00417448  .00000066  00000+0  13565-3 0  9993","line2":"2 55166  87.9205 347.0466 0001954  97.8260 262.3093 13.17647470180067","mean_motion":13.1764747,"eccentricity":0.0001954,"inclination_deg":87.9205,"raan_deg":347.0466,"arg_perigee_deg":97.826,"mean_anomaly_deg":262.3093,"bstar":0.00013565,"rev_number":18006,"period_min":109.28568018273,"perigee_km":1192.239580598,"apogee_km":1195.1986619702,"semimajor_km":7571.8561212841,"source":"CELESTRAK","updated_at":"2026-09-20T09:00:44.755721Z"}}